Regional Weather Roundup
Issued by NWS

Home | Current Version | Previous Version | Graphics & Text | Print | Product List | Glossary On
Versions: 1 2 3 4 5 6 7 8 9 10 11 12 13 14 15 16 17 18 19 20 21 22 23 24 25 26 27 28 29 30 31 32 33 34 35 36 37 38 39 40 41 42 43 44 45 46 47 48 49 50
000
ASUS43 KLMK 152302
RWRKY
KENTUCKY REGIONAL WEATHER ROUNDUP
NATIONAL WEATHER SERVICE LOUISVILLE KY
700 PM EDT TUE AUG 15 2017

NOTE "FAIR" INDICATES FEW OR NO CLOUDS BELOW 12,000 FEET
WITH NO SIGNIFICANT WEATHER AND/OR OBSTRUCTIONS TO VISIBILITY.

KYZ001>023-026-027-061>063-070>075-160000-
WESTERN AND SOUTH CENTRAL KENTUCKY

CITY           SKY/WX    TMP DP  RH WIND       PRES   REMARKS
PADUCAH        PTSUNNY   86  72  62 CALM      29.87F HX  92
HENDERSON      NOT AVBL
OWENSBORO      PTSUNNY   86  72  62 N7        29.89F HX  92
HOPKINSVILLE   MOSUNNY   85  72  64 S6        29.89R HX  92
BOWLING GREEN  MOSUNNY   86  73  65 NE5       29.89F HX  93
GLASGOW        MOSUNNY   84  69  61 CALM      29.92S
$$

KYZ024-025-028>034-038-045-046-053-160000-
NORTH CENTRAL KENTUCKY

CITY           SKY/WX    TMP DP  RH WIND       PRES   REMARKS
LOUISVILLE/SDF CLOUDY    88  68  51 NW8       29.90S HX  91
LOUISVILLE/LOU CLOUDY    87  70  56 NW6       29.91S HX  92
FORT KNOX      CLOUDY    83  70  64 NW3       29.90S
$$

KYZ035>037-039>044-047>052-055>060-089>105-160000-
NORTHEAST KENTUCKY

CITY           SKY/WX    TMP DP  RH WIND       PRES   REMARKS
LEXINGTON      CLOUDY    84  69  60 W3        29.93F
COVINGTON      PTSUNNY   85  68  56 W7        29.92S
FRANKFORT      CLOUDY    85  68  56 NW3       29.91F
$$

KYZ054-064>069-076>088-106>120-160000-
SOUTHEAST KENTUCKY

CITY           SKY/WX    TMP DP  RH WIND       PRES   REMARKS
JACKSON        CLOUDY    81  71  71 CALM      29.96S
LONDON         PTSUNNY   82  70  66 W6        29.95S
SOMERSET       NOT AVBL
MIDDLESBORO    MOSUNNY   83  72  69 N3        29.95S
MONTICELLO     PTCLDY    81  75  82 CALM      29.96S HAZE
$$





USA.gov is the U.S. government's official web portal to all federal, state and local government web resources and services.